Year,Month,Day,Hour,Minute,Value (Times are PST for temperature in C)
2008,06,26,00,00,13.60
2008,06,26,00,01,13.60
2008,06,26,00,02,13.60
2008,06,26,00,03,13.50
2008,06,26,00,04,13.50
2008,06,26,00,05,13.50
2008,06,26,00,06,13.50
2008,06,26,00,07,13.40
2008,06,26,00,08,13.40
2008,06,26,00,09,13.40
2008,06,26,00,10,13.40
2008,06,26,00,11,13.40
2008,06,26,00,12,13.40
2008,06,26,00,13,13.40
2008,06,26,00,14,13.40
2008,06,26,00,15,13.40
2008,06,26,00,16,13.40
2008,06,26,00,17,13.40
2008,06,26,00,18,13.40
2008,06,26,00,19,13.40
2008,06,26,00,20,13.40
2008,06,26,00,21,13.40
2008,06,26,00,22,13.40
2008,06,26,00,23,13.40
2008,06,26,00,24,13.40
2008,06,26,00,25,13.40
2008,06,26,00,26,13.40
2008,06,26,00,27,13.40
2008,06,26,00,28,13.40
2008,06,26,00,29,13.40
2008,06,26,00,30,13.40
2008,06,26,00,31,13.40
2008,06,26,00,32,13.40
2008,06,26,00,33,13.40
2008,06,26,00,34,13.30
2008,06,26,00,35,13.30
2008,06,26,00,36,13.30
2008,06,26,00,37,13.30
2008,06,26,00,38,13.30
2008,06,26,00,39,13.30
2008,06,26,00,40,13.30
2008,06,26,00,41,13.30
2008,06,26,00,42,13.30
2008,06,26,00,43,13.30
2008,06,26,00,44,13.30
2008,06,26,00,45,13.30
2008,06,26,00,46,13.30
2008,06,26,00,47,13.30
2008,06,26,00,48,13.30
2008,06,26,00,49,13.30
2008,06,26,00,50,13.40
2008,06,26,00,51,13.40
2008,06,26,00,52,13.40
2008,06,26,00,53,13.40
2008,06,26,00,54,13.40
2008,06,26,00,55,13.40
2008,06,26,00,56,13.40
2008,06,26,00,57,13.40
2008,06,26,00,58,13.40
2008,06,26,00,59,13.40
2008,06,26,01,00,13.30
2008,06,26,01,01,13.30
2008,06,26,01,02,13.30
2008,06,26,01,03,13.30
2008,06,26,01,04,13.20
2008,06,26,01,05,13.20
2008,06,26,01,06,13.20
2008,06,26,01,07,13.20
2008,06,26,01,08,13.20
2008,06,26,01,09,13.10
2008,06,26,01,10,13.10
2008,06,26,01,11,13.10
2008,06,26,01,12,13.10
2008,06,26,01,13,13.10
2008,06,26,01,14,13.10
2008,06,26,01,15,13.00
2008,06,26,01,16,13.00
2008,06,26,01,17,13.00
2008,06,26,01,18,13.00
2008,06,26,01,19,13.00
2008,06,26,01,20,13.00
2008,06,26,01,21,13.00
2008,06,26,01,22,13.00
2008,06,26,01,23,13.00
2008,06,26,01,24,13.00
2008,06,26,01,25,13.10
2008,06,26,01,26,13.10
2008,06,26,01,27,13.10
2008,06,26,01,28,13.10
2008,06,26,01,29,13.20
2008,06,26,01,30,13.20
2008,06,26,01,31,13.20
2008,06,26,01,32,13.20
2008,06,26,01,33,13.30
2008,06,26,01,34,13.30
2008,06,26,01,35,13.30
2008,06,26,01,36,13.40
2008,06,26,01,37,13.40
2008,06,26,01,38,13.40
2008,06,26,01,39,13.30
2008,06,26,01,40,13.30
2008,06,26,01,41,13.30
2008,06,26,01,42,13.30
2008,06,26,01,43,13.30
2008,06,26,01,44,13.30
2008,06,26,01,45,13.30
2008,06,26,01,46,13.30
2008,06,26,01,47,13.30
2008,06,26,01,48,13.30
2008,06,26,01,49,13.20
2008,06,26,01,50,13.20
2008,06,26,01,51,13.20
2008,06,26,01,52,13.20
2008,06,26,01,53,13.30
2008,06,26,01,54,13.30
2008,06,26,01,55,13.30
2008,06,26,01,56,13.30
2008,06,26,01,57,13.30
2008,06,26,01,58,13.30
2008,06,26,01,59,13.30
2008,06,26,02,00,13.30
2008,06,26,02,01,13.30
2008,06,26,02,02,13.30
2008,06,26,02,03,13.30
2008,06,26,02,04,13.20
2008,06,26,02,05,13.20
2008,06,26,02,06,13.20
2008,06,26,02,07,13.20
2008,06,26,02,08,13.20
2008,06,26,02,09,13.20
2008,06,26,02,10,13.20
2008,06,26,02,11,13.20
2008,06,26,02,12,13.20
2008,06,26,02,13,13.10
2008,06,26,02,14,13.10
2008,06,26,02,15,13.10
2008,06,26,02,16,13.10
2008,06,26,02,17,13.10
2008,06,26,02,18,13.10
2008,06,26,02,19,13.10
2008,06,26,02,20,13.10
2008,06,26,02,21,13.00
2008,06,26,02,22,13.00
2008,06,26,02,23,13.00
2008,06,26,02,24,13.00
2008,06,26,02,25,13.00
2008,06,26,02,26,12.90
2008,06,26,02,27,12.90
2008,06,26,02,28,12.90
2008,06,26,02,29,12.90
2008,06,26,02,30,12.90
2008,06,26,02,31,12.90
2008,06,26,02,32,12.90
2008,06,26,02,33,12.90
2008,06,26,02,34,12.90
2008,06,26,02,35,12.90
2008,06,26,02,36,12.90
2008,06,26,02,37,12.90
2008,06,26,02,38,12.90
2008,06,26,02,39,12.90
2008,06,26,02,40,12.90
2008,06,26,02,41,12.90
2008,06,26,02,42,12.90
2008,06,26,02,43,12.90
2008,06,26,02,44,12.90
2008,06,26,02,45,12.90
2008,06,26,02,46,12.90
2008,06,26,02,47,12.90
2008,06,26,02,48,12.90
2008,06,26,02,49,12.90
2008,06,26,02,50,12.90
2008,06,26,02,51,12.90
2008,06,26,02,52,12.90
2008,06,26,02,53,12.90
2008,06,26,02,54,12.90
2008,06,26,02,55,12.90
2008,06,26,02,56,12.90
2008,06,26,02,57,12.80
2008,06,26,02,58,12.80
2008,06,26,02,59,12.80
2008,06,26,03,00,12.80
2008,06,26,03,01,12.80
2008,06,26,03,02,12.80
2008,06,26,03,03,12.70
2008,06,26,03,04,12.70
2008,06,26,03,05,12.70
2008,06,26,03,06,12.70
2008,06,26,03,07,12.70
2008,06,26,03,08,12.70
2008,06,26,03,09,12.60
2008,06,26,03,10,12.60
2008,06,26,03,11,12.60
2008,06,26,03,12,12.60
2008,06,26,03,13,12.60
2008,06,26,03,14,12.60
2008,06,26,03,15,12.60
2008,06,26,03,16,12.60
2008,06,26,03,17,12.60
2008,06,26,03,18,12.60
2008,06,26,03,19,12.60
2008,06,26,03,20,12.60
2008,06,26,03,21,12.50
2008,06,26,03,22,12.50
2008,06,26,03,23,12.50
2008,06,26,03,24,12.50
2008,06,26,03,25,12.50
2008,06,26,03,26,12.50
2008,06,26,03,27,12.50
2008,06,26,03,28,12.50
2008,06,26,03,29,12.50
2008,06,26,03,30,12.50
2008,06,26,03,31,12.50
2008,06,26,03,32,12.50
2008,06,26,03,33,12.60
2008,06,26,03,34,12.60
2008,06,26,03,35,12.60
2008,06,26,03,36,12.60
2008,06,26,03,37,12.60
2008,06,26,03,38,12.60
2008,06,26,03,39,12.60
2008,06,26,03,40,12.70
2008,06,26,03,41,12.70
2008,06,26,03,42,12.70
2008,06,26,03,43,12.70
2008,06,26,03,44,12.70
2008,06,26,03,45,12.70
2008,06,26,03,46,12.70
2008,06,26,03,47,12.70
2008,06,26,03,48,12.70
2008,06,26,03,49,12.70
2008,06,26,03,50,12.70
2008,06,26,03,51,12.70
2008,06,26,03,52,12.70
2008,06,26,03,53,12.70
2008,06,26,03,54,12.70
2008,06,26,03,55,12.70
2008,06,26,03,56,12.70
2008,06,26,03,57,12.60
2008,06,26,03,58,12.60
2008,06,26,03,59,12.60
2008,06,26,04,00,12.60
2008,06,26,04,01,12.60
2008,06,26,04,02,12.60
2008,06,26,04,03,12.60
2008,06,26,04,04,12.60
2008,06,26,04,05,12.60
2008,06,26,04,06,12.60
2008,06,26,04,07,12.60
2008,06,26,04,08,12.60
2008,06,26,04,09,12.60
2008,06,26,04,10,12.60
2008,06,26,04,11,12.60
2008,06,26,04,12,12.60
2008,06,26,04,13,12.70
2008,06,26,04,14,12.70
2008,06,26,04,15,12.70
2008,06,26,04,16,12.70
2008,06,26,04,17,12.70
2008,06,26,04,18,12.70
2008,06,26,04,19,12.70
2008,06,26,04,20,12.70
2008,06,26,04,21,12.70
2008,06,26,04,22,12.70
2008,06,26,04,23,12.70
2008,06,26,04,24,12.70
2008,06,26,04,25,12.70
2008,06,26,04,26,12.70
2008,06,26,04,27,12.70
2008,06,26,04,28,12.70
2008,06,26,04,29,12.70
2008,06,26,04,30,12.70
2008,06,26,04,31,12.80
2008,06,26,04,32,12.80
2008,06,26,04,33,12.80
2008,06,26,04,34,12.80
2008,06,26,04,35,12.80
2008,06,26,04,36,12.80
2008,06,26,04,37,12.80
2008,06,26,04,38,12.80
2008,06,26,04,39,12.80
2008,06,26,04,40,12.80
2008,06,26,04,41,12.70
2008,06,26,04,42,12.70
2008,06,26,04,43,12.70
2008,06,26,04,44,12.70
2008,06,26,04,45,12.70
2008,06,26,04,46,12.70
2008,06,26,04,47,12.70
2008,06,26,04,48,12.70
2008,06,26,04,49,12.70
2008,06,26,04,50,12.70
2008,06,26,04,51,12.70
2008,06,26,04,52,12.70
2008,06,26,04,53,12.70
2008,06,26,04,54,12.70
2008,06,26,04,55,12.70
2008,06,26,04,56,12.70
2008,06,26,04,57,12.70
2008,06,26,04,58,12.70
2008,06,26,04,59,12.70
2008,06,26,05,00,12.70
2008,06,26,05,01,12.60
2008,06,26,05,02,12.60
2008,06,26,05,03,12.60
2008,06,26,05,04,12.60
2008,06,26,05,05,12.60
2008,06,26,05,06,12.60
2008,06,26,05,07,12.60
2008,06,26,05,08,12.60
2008,06,26,05,09,12.60
2008,06,26,05,10,12.60
2008,06,26,05,11,12.60
2008,06,26,05,12,12.60
2008,06,26,05,13,12.50
2008,06,26,05,14,12.60
2008,06,26,05,15,12.60
2008,06,26,05,16,12.50
2008,06,26,05,17,12.50
2008,06,26,05,18,12.50
2008,06,26,05,19,12.50
2008,06,26,05,20,12.50
2008,06,26,05,21,12.50
2008,06,26,05,22,12.50
2008,06,26,05,23,12.50
2008,06,26,05,24,12.50
2008,06,26,05,25,12.50
2008,06,26,05,26,12.50
2008,06,26,05,27,12.50
2008,06,26,05,28,12.60
2008,06,26,05,29,12.50
2008,06,26,05,30,12.60
2008,06,26,05,31,12.60
2008,06,26,05,32,12.60
2008,06,26,05,33,12.60
2008,06,26,05,34,12.60
2008,06,26,05,35,12.60
2008,06,26,05,36,12.60
2008,06,26,05,37,12.60
2008,06,26,05,38,12.60
2008,06,26,05,39,12.60
2008,06,26,05,40,12.60
2008,06,26,05,41,12.60
2008,06,26,05,42,12.60
2008,06,26,05,43,12.60
2008,06,26,05,44,12.60
2008,06,26,05,45,12.60
2008,06,26,05,46,12.60
2008,06,26,05,47,12.70
2008,06,26,05,48,12.70
2008,06,26,05,49,12.70
2008,06,26,05,50,12.70
2008,06,26,05,51,12.70
2008,06,26,05,52,12.70
2008,06,26,05,53,12.70
2008,06,26,05,54,12.70
2008,06,26,05,55,12.70
2008,06,26,05,56,12.70
2008,06,26,05,57,12.70
2008,06,26,05,58,12.70
2008,06,26,05,59,12.70
2008,06,26,06,00,12.70
2008,06,26,06,01,12.70
2008,06,26,06,02,12.70
2008,06,26,06,03,12.70
2008,06,26,06,04,12.70
2008,06,26,06,05,12.70
2008,06,26,06,06,12.70
2008,06,26,06,07,12.70
2008,06,26,06,08,12.60
2008,06,26,06,09,12.60
2008,06,26,06,10,12.60
2008,06,26,06,11,12.60
2008,06,26,06,12,12.60
2008,06,26,06,13,12.70
2008,06,26,06,14,12.70
2008,06,26,06,15,12.70
2008,06,26,06,16,12.70
2008,06,26,06,17,12.70
2008,06,26,06,18,12.70
2008,06,26,06,19,12.70
2008,06,26,06,20,12.70
2008,06,26,06,21,12.70
2008,06,26,06,22,12.70
2008,06,26,06,23,12.70
2008,06,26,06,24,12.70
2008,06,26,06,25,12.70
2008,06,26,06,26,12.60
2008,06,26,06,27,12.60
2008,06,26,06,28,12.70
2008,06,26,06,29,12.60
2008,06,26,06,30,12.70
2008,06,26,06,31,12.70
2008,06,26,06,32,12.70
2008,06,26,06,33,12.70
2008,06,26,06,34,12.70
2008,06,26,06,35,12.70
2008,06,26,06,36,12.70
2008,06,26,06,37,12.70
2008,06,26,06,38,12.70
2008,06,26,06,39,12.80
2008,06,26,06,40,12.80
2008,06,26,06,41,12.80
2008,06,26,06,42,12.80
2008,06,26,06,43,12.80
2008,06,26,06,44,12.80
2008,06,26,06,45,12.80
2008,06,26,06,46,12.80
2008,06,26,06,47,12.80
2008,06,26,06,48,12.90
2008,06,26,06,49,12.90
2008,06,26,06,50,12.90
2008,06,26,06,51,12.90
2008,06,26,06,52,12.90
2008,06,26,06,53,12.90
2008,06,26,06,54,12.80
2008,06,26,06,55,12.80
2008,06,26,06,56,12.80
2008,06,26,06,57,12.80
2008,06,26,06,58,12.80
2008,06,26,06,59,12.80
2008,06,26,07,00,12.80
2008,06,26,07,01,12.80
2008,06,26,07,02,12.80
2008,06,26,07,03,12.90
2008,06,26,07,04,12.90
2008,06,26,07,05,12.90
2008,06,26,07,06,12.80
2008,06,26,07,07,12.80
2008,06,26,07,08,12.80
2008,06,26,07,09,12.80
2008,06,26,07,10,12.80
2008,06,26,07,11,12.90
2008,06,26,07,12,12.90
2008,06,26,07,13,12.90
2008,06,26,07,14,13.00
2008,06,26,07,15,13.00
2008,06,26,07,16,13.00
2008,06,26,07,17,12.90
2008,06,26,07,18,13.00
2008,06,26,07,19,13.00
2008,06,26,07,20,13.00
2008,06,26,07,21,13.10
2008,06,26,07,22,13.10
2008,06,26,07,23,13.10
2008,06,26,07,24,13.10
2008,06,26,07,25,13.10
2008,06,26,07,26,13.10
2008,06,26,07,27,13.20
2008,06,26,07,28,13.20
2008,06,26,07,29,13.20
2008,06,26,07,30,13.20
2008,06,26,07,31,13.20
2008,06,26,07,32,13.20
2008,06,26,07,33,13.30
2008,06,26,07,34,13.30
2008,06,26,07,35,13.30
2008,06,26,07,36,13.30
2008,06,26,07,37,13.30
2008,06,26,07,38,13.30
2008,06,26,07,39,13.30
2008,06,26,07,40,13.30
2008,06,26,07,41,13.40
2008,06,26,07,42,13.40
2008,06,26,07,43,13.40
2008,06,26,07,44,13.40
2008,06,26,07,45,13.40
2008,06,26,07,46,13.40
2008,06,26,07,47,13.40
2008,06,26,07,48,13.40
2008,06,26,07,49,13.40
2008,06,26,07,50,13.40
2008,06,26,07,51,13.40
2008,06,26,07,52,13.40
2008,06,26,07,53,13.40
2008,06,26,07,54,13.30
2008,06,26,07,55,13.40
2008,06,26,07,56,13.40
2008,06,26,07,57,13.40
2008,06,26,07,58,13.40
2008,06,26,07,59,13.40
2008,06,26,08,00,13.40
2008,06,26,08,01,13.40
2008,06,26,08,02,13.50
2008,06,26,08,03,13.60
2008,06,26,08,04,13.60
2008,06,26,08,05,13.60
2008,06,26,08,06,13.60
2008,06,26,08,07,13.70
2008,06,26,08,08,13.70
2008,06,26,08,09,13.70
2008,06,26,08,10,13.70
2008,06,26,08,11,13.80
2008,06,26,08,12,13.80
2008,06,26,08,13,13.80
2008,06,26,08,14,13.80
2008,06,26,08,15,13.80
2008,06,26,08,16,13.80
2008,06,26,08,17,13.80
2008,06,26,08,18,13.80
2008,06,26,08,19,13.80
2008,06,26,08,20,13.80
2008,06,26,08,21,13.80
2008,06,26,08,22,13.80
2008,06,26,08,23,13.90
2008,06,26,08,24,13.90
2008,06,26,08,25,13.90
2008,06,26,08,26,13.90
2008,06,26,08,27,13.90
2008,06,26,08,28,13.90
2008,06,26,08,29,13.90
2008,06,26,08,30,14.00
2008,06,26,08,31,14.00
2008,06,26,08,32,14.00
2008,06,26,08,33,13.90
2008,06,26,08,34,13.90
2008,06,26,08,35,13.90
2008,06,26,08,36,14.00
2008,06,26,08,37,14.00
2008,06,26,08,38,14.00
2008,06,26,08,39,14.10
2008,06,26,08,40,14.10
2008,06,26,08,41,14.10
2008,06,26,08,42,14.20
2008,06,26,08,43,14.20
2008,06,26,08,44,14.20
2008,06,26,08,45,14.20
2008,06,26,08,46,14.20
2008,06,26,08,47,14.20
2008,06,26,08,48,14.20
2008,06,26,08,49,14.20
2008,06,26,08,50,14.20
2008,06,26,08,51,14.20
2008,06,26,08,52,14.20
2008,06,26,08,53,14.20
2008,06,26,08,54,14.20
2008,06,26,08,55,14.20
2008,06,26,08,56,14.30
2008,06,26,08,57,14.30
2008,06,26,08,58,14.30
2008,06,26,08,59,14.30
2008,06,26,09,00,14.30
2008,06,26,09,01,14.30
2008,06,26,09,02,14.30
2008,06,26,09,03,14.30
2008,06,26,09,04,14.20
2008,06,26,09,05,14.20
2008,06,26,09,06,14.10
2008,06,26,09,07,14.10
2008,06,26,09,08,14.10
2008,06,26,09,09,14.00
2008,06,26,09,10,14.00
2008,06,26,09,11,13.90
2008,06,26,09,12,13.90
2008,06,26,09,13,13.80
2008,06,26,09,14,13.80
2008,06,26,09,15,13.80
2008,06,26,09,16,13.80
2008,06,26,09,17,13.80
2008,06,26,09,18,13.80
2008,06,26,09,19,13.80
2008,06,26,09,20,13.80
2008,06,26,09,21,13.80
2008,06,26,09,22,13.70
2008,06,26,09,23,13.70
2008,06,26,09,24,13.70
2008,06,26,09,25,13.80
2008,06,26,09,26,13.80
2008,06,26,09,27,13.80
2008,06,26,09,28,13.80
2008,06,26,09,29,13.90
2008,06,26,09,30,13.90
2008,06,26,09,31,13.90
2008,06,26,09,32,13.80
2008,06,26,09,33,13.80
2008,06,26,09,34,13.80
2008,06,26,09,35,13.70
2008,06,26,09,36,13.70
2008,06,26,09,37,13.70
2008,06,26,09,38,13.60
2008,06,26,09,39,13.60
2008,06,26,09,40,13.60
2008,06,26,09,41,13.60
2008,06,26,09,42,13.60
2008,06,26,09,43,13.60
2008,06,26,09,44,13.60
2008,06,26,09,45,13.50
2008,06,26,09,46,13.50
2008,06,26,09,47,13.50
2008,06,26,09,48,13.50
2008,06,26,09,49,13.50
2008,06,26,09,50,13.50
2008,06,26,09,51,13.50
2008,06,26,09,52,13.40
2008,06,26,09,53,13.40
2008,06,26,09,54,13.40
2008,06,26,09,55,13.50
2008,06,26,09,56,13.40
2008,06,26,09,57,13.40
2008,06,26,09,58,13.40
2008,06,26,09,59,13.40
2008,06,26,10,00,13.40
2008,06,26,10,01,13.30
2008,06,26,10,02,13.30
2008,06,26,10,03,13.30
2008,06,26,10,04,13.30
2008,06,26,10,05,13.30
2008,06,26,10,06,13.30
2008,06,26,10,07,13.40
2008,06,26,10,08,13.40
2008,06,26,10,09,13.40
2008,06,26,10,10,13.40
2008,06,26,10,11,13.40
2008,06,26,10,12,13.40
2008,06,26,10,13,13.40
2008,06,26,10,14,13.40
2008,06,26,10,15,13.30
2008,06,26,10,16,13.30
2008,06,26,10,17,13.30
2008,06,26,10,18,13.30
2008,06,26,10,19,13.20
2008,06,26,10,20,13.20
2008,06,26,10,21,13.20
2008,06,26,10,22,13.30
2008,06,26,10,23,13.30
2008,06,26,10,24,13.20
2008,06,26,10,25,13.20
2008,06,26,10,26,13.30
2008,06,26,10,27,13.30
2008,06,26,10,28,13.30
2008,06,26,10,29,13.30
2008,06,26,10,30,13.30
2008,06,26,10,31,13.30
2008,06,26,10,32,13.20
2008,06,26,10,33,13.30
2008,06,26,10,34,13.30
2008,06,26,10,35,13.30
2008,06,26,10,36,13.30
2008,06,26,10,37,13.30
2008,06,26,10,38,13.30
2008,06,26,10,39,13.20
2008,06,26,10,40,13.20
2008,06,26,10,41,13.10
2008,06,26,10,42,13.10
2008,06,26,10,43,13.10
2008,06,26,10,44,13.10
2008,06,26,10,45,13.10
2008,06,26,10,46,13.10
2008,06,26,10,47,13.10
2008,06,26,10,48,13.10
2008,06,26,10,49,13.10
2008,06,26,10,50,13.00
2008,06,26,10,51,13.00
2008,06,26,10,52,12.90
2008,06,26,10,53,12.90
2008,06,26,10,54,12.90
2008,06,26,10,55,12.80
2008,06,26,10,56,12.90
2008,06,26,10,57,12.90
2008,06,26,10,58,12.90
2008,06,26,10,59,13.00
2008,06,26,11,00,13.10
2008,06,26,11,01,13.10
2008,06,26,11,02,13.10
2008,06,26,11,03,13.10
2008,06,26,11,04,13.10
2008,06,26,11,05,13.10
2008,06,26,11,06,13.10
2008,06,26,11,07,13.20
2008,06,26,11,08,13.10
2008,06,26,11,09,13.10
2008,06,26,11,10,13.10
2008,06,26,11,11,13.10
2008,06,26,11,12,13.00
2008,06,26,11,13,13.10
2008,06,26,11,14,13.10
2008,06,26,11,15,13.10
2008,06,26,11,16,13.20
2008,06,26,11,17,13.20
2008,06,26,11,18,13.20
2008,06,26,11,19,13.20
2008,06,26,11,20,13.20
2008,06,26,11,21,13.20
2008,06,26,11,22,13.20
2008,06,26,11,23,13.20
2008,06,26,11,24,13.20
2008,06,26,11,25,13.10
2008,06,26,11,26,13.10
2008,06,26,11,27,13.10
2008,06,26,11,28,13.10
2008,06,26,11,29,13.10
2008,06,26,11,30,13.10
2008,06,26,11,31,13.10
2008,06,26,11,32,13.10
2008,06,26,11,33,13.10
2008,06,26,11,34,13.20
2008,06,26,11,35,13.20
2008,06,26,11,36,13.30
2008,06,26,11,37,13.30
2008,06,26,11,38,13.30
2008,06,26,11,39,13.30
2008,06,26,11,40,13.30
2008,06,26,11,41,13.30
2008,06,26,11,42,13.40
2008,06,26,11,43,13.40
2008,06,26,11,44,13.40
2008,06,26,11,45,13.40
2008,06,26,11,46,13.40
2008,06,26,11,47,13.40
2008,06,26,11,48,13.40
2008,06,26,11,49,13.40
2008,06,26,11,50,13.40
2008,06,26,11,51,13.40
2008,06,26,11,52,13.40
2008,06,26,11,53,13.30
2008,06,26,11,54,13.30
2008,06,26,11,55,13.30
2008,06,26,11,56,13.30
2008,06,26,11,57,13.30
2008,06,26,11,58,13.30
2008,06,26,11,59,13.30
2008,06,26,12,00,13.40
2008,06,26,12,01,13.30
2008,06,26,12,02,13.40
2008,06,26,12,03,13.40
2008,06,26,12,04,13.40
2008,06,26,12,05,13.40
2008,06,26,12,06,13.40
2008,06,26,12,07,13.40
2008,06,26,12,08,13.40
2008,06,26,12,09,13.40
2008,06,26,12,10,13.50
2008,06,26,12,11,13.50
2008,06,26,12,12,13.60
2008,06,26,12,13,13.70
2008,06,26,12,14,13.60
2008,06,26,12,15,13.60
2008,06,26,12,16,13.50
2008,06,26,12,17,13.50
2008,06,26,12,18,13.50
2008,06,26,12,19,13.50
2008,06,26,12,20,13.50
2008,06,26,12,21,13.50
2008,06,26,12,22,13.50
2008,06,26,12,23,13.50
2008,06,26,12,24,13.50
2008,06,26,12,25,13.40
2008,06,26,12,26,13.40
2008,06,26,12,27,13.40
2008,06,26,12,28,13.40
2008,06,26,12,29,13.40
2008,06,26,12,30,13.40
2008,06,26,12,31,13.40
2008,06,26,12,32,13.50
2008,06,26,12,33,13.50
2008,06,26,12,34,13.50
2008,06,26,12,35,13.50
2008,06,26,12,36,13.40
2008,06,26,12,37,13.50
2008,06,26,12,38,13.50
2008,06,26,12,39,13.60
2008,06,26,12,40,13.60
2008,06,26,12,41,13.80
2008,06,26,12,42,13.90
2008,06,26,12,43,13.90
2008,06,26,12,44,13.90
2008,06,26,12,45,13.90
2008,06,26,12,46,14.00
2008,06,26,12,47,14.10
2008,06,26,12,48,14.20
2008,06,26,12,49,14.20
2008,06,26,12,50,14.20
2008,06,26,12,51,14.10
2008,06,26,12,52,14.10
2008,06,26,12,53,14.00
2008,06,26,12,54,13.90
2008,06,26,12,55,13.80
2008,06,26,12,56,13.90
2008,06,26,12,57,13.90
2008,06,26,12,58,14.00
2008,06,26,12,59,14.10
2008,06,26,13,00,14.10
2008,06,26,13,01,13.90
2008,06,26,13,02,13.80
2008,06,26,13,03,13.80
2008,06,26,13,04,13.80
2008,06,26,13,05,13.80
2008,06,26,13,06,13.70
2008,06,26,13,07,13.80
2008,06,26,13,08,13.80
2008,06,26,13,09,13.80
2008,06,26,13,10,13.90
2008,06,26,13,11,13.90
2008,06,26,13,12,14.00
2008,06,26,13,13,14.00
2008,06,26,13,14,14.10
2008,06,26,13,15,14.20
2008,06,26,13,16,14.20
2008,06,26,13,17,14.20
2008,06,26,13,18,14.20
2008,06,26,13,19,14.20
2008,06,26,13,20,14.20
2008,06,26,13,21,14.10
2008,06,26,13,22,13.90
2008,06,26,13,23,13.80
2008,06,26,13,24,13.70
2008,06,26,13,25,13.70
2008,06,26,13,26,13.60
2008,06,26,13,27,13.60
2008,06,26,13,28,13.60
2008,06,26,13,29,13.70
2008,06,26,13,30,13.80
2008,06,26,13,31,13.90
2008,06,26,13,32,13.90
2008,06,26,13,33,14.00
2008,06,26,13,34,14.00
2008,06,26,13,35,14.10
2008,06,26,13,36,14.20
2008,06,26,13,37,14.10
2008,06,26,13,38,14.10
2008,06,26,13,39,14.10
2008,06,26,13,40,14.10
2008,06,26,13,41,14.10
2008,06,26,13,42,14.20
2008,06,26,13,43,14.20
2008,06,26,13,44,14.20
2008,06,26,13,45,14.20
2008,06,26,13,46,14.20
2008,06,26,13,47,14.10
2008,06,26,13,48,14.10
2008,06,26,13,49,14.10
2008,06,26,13,50,14.00
2008,06,26,13,51,14.10
2008,06,26,13,52,14.10
2008,06,26,13,53,14.10
2008,06,26,13,54,14.20
2008,06,26,13,55,14.20
2008,06,26,13,56,14.20
2008,06,26,13,57,14.10
2008,06,26,13,58,14.10
2008,06,26,13,59,14.20
2008,06,26,14,00,14.20
2008,06,26,14,01,14.20
2008,06,26,14,02,14.20
2008,06,26,14,03,14.10
2008,06,26,14,04,14.10
2008,06,26,14,05,14.00
2008,06,26,14,06,14.00
2008,06,26,14,07,13.90
2008,06,26,14,08,13.90
2008,06,26,14,09,13.90
2008,06,26,14,10,13.90
2008,06,26,14,11,13.90
2008,06,26,14,12,13.90
2008,06,26,14,13,13.90
2008,06,26,14,14,13.90
2008,06,26,14,15,13.90
2008,06,26,14,16,13.90
2008,06,26,14,17,14.00
2008,06,26,14,18,14.00
2008,06,26,14,19,14.00
2008,06,26,14,20,14.00
2008,06,26,14,21,14.00
2008,06,26,14,22,14.10
2008,06,26,14,23,14.10
2008,06,26,14,24,14.00
2008,06,26,14,25,14.00
2008,06,26,14,26,14.00
2008,06,26,14,27,14.00
2008,06,26,14,28,14.00
2008,06,26,14,29,14.00
2008,06,26,14,30,13.90
2008,06,26,14,31,13.90
2008,06,26,14,32,13.90
2008,06,26,14,33,14.00
2008,06,26,14,34,14.00
2008,06,26,14,35,14.00
2008,06,26,14,36,14.10
2008,06,26,14,37,14.10
2008,06,26,14,38,14.10
2008,06,26,14,39,14.10
2008,06,26,14,40,14.10
2008,06,26,14,41,14.20
2008,06,26,14,42,14.20
2008,06,26,14,43,14.20
2008,06,26,14,44,14.20
2008,06,26,14,45,14.20
2008,06,26,14,46,14.20
2008,06,26,14,47,14.20
2008,06,26,14,48,14.20
2008,06,26,14,49,14.20
2008,06,26,14,50,14.10
2008,06,26,14,51,14.20
2008,06,26,14,52,14.20
2008,06,26,14,53,14.30
2008,06,26,14,54,14.30
2008,06,26,14,55,14.30
2008,06,26,14,56,14.40
2008,06,26,14,57,14.30
2008,06,26,14,58,14.20
2008,06,26,14,59,14.20
2008,06,26,15,00,14.20
2008,06,26,15,01,14.20
2008,06,26,15,02,14.10
2008,06,26,15,03,14.10
2008,06,26,15,04,14.10
2008,06,26,15,05,14.00
2008,06,26,15,06,14.00
2008,06,26,15,07,13.90
2008,06,26,15,08,13.90
2008,06,26,15,09,14.00
2008,06,26,15,10,14.00
2008,06,26,15,11,13.90
2008,06,26,15,12,13.90
2008,06,26,15,13,13.90
2008,06,26,15,14,13.90
2008,06,26,15,15,13.90
2008,06,26,15,16,14.00
2008,06,26,15,17,14.00
2008,06,26,15,18,14.00
2008,06,26,15,19,14.10
2008,06,26,15,20,14.10
2008,06,26,15,21,14.10
2008,06,26,15,22,14.10
2008,06,26,15,23,14.10
2008,06,26,15,24,14.10
2008,06,26,15,25,14.10
2008,06,26,15,26,14.10
2008,06,26,15,27,14.00
2008,06,26,15,28,14.00
2008,06,26,15,29,14.10
2008,06,26,15,30,14.10
2008,06,26,15,31,14.00
2008,06,26,15,32,13.90
2008,06,26,15,33,13.90
2008,06,26,15,34,13.90
2008,06,26,15,35,14.00
2008,06,26,15,36,13.90
2008,06,26,15,37,13.90
2008,06,26,15,38,14.00
2008,06,26,15,39,14.10
2008,06,26,15,40,14.10
2008,06,26,15,41,14.10
2008,06,26,15,42,14.10
2008,06,26,15,43,14.10
2008,06,26,15,44,14.20
2008,06,26,15,45,14.10
2008,06,26,15,46,14.10
2008,06,26,15,47,14.10
2008,06,26,15,48,14.10
2008,06,26,15,49,14.00
2008,06,26,15,50,14.00
2008,06,26,15,51,14.00
2008,06,26,15,52,13.90
2008,06,26,15,53,13.90
2008,06,26,15,54,13.90
2008,06,26,15,55,13.90
2008,06,26,15,56,14.00
2008,06,26,15,57,14.00
2008,06,26,15,58,14.00
2008,06,26,15,59,14.00
2008,06,26,16,00,14.00
2008,06,26,16,01,14.00
2008,06,26,16,02,13.90
2008,06,26,16,03,13.90
2008,06,26,16,04,13.90
2008,06,26,16,05,13.90
2008,06,26,16,06,14.00
2008,06,26,16,07,14.00
2008,06,26,16,08,13.90
2008,06,26,16,09,13.90
2008,06,26,16,10,13.90
2008,06,26,16,11,13.90
2008,06,26,16,12,13.90
2008,06,26,16,13,13.90
2008,06,26,16,14,14.00
2008,06,26,16,15,14.00
2008,06,26,16,16,14.00
2008,06,26,16,17,14.10
2008,06,26,16,18,14.10
2008,06,26,16,19,14.10
2008,06,26,16,20,14.10
2008,06,26,16,21,14.10
2008,06,26,16,22,14.10
2008,06,26,16,23,14.10
2008,06,26,16,24,14.10
2008,06,26,16,25,14.10
2008,06,26,16,26,14.10
2008,06,26,16,27,14.00
2008,06,26,16,28,14.00
2008,06,26,16,29,14.10
2008,06,26,16,30,14.10
2008,06,26,16,31,14.10
2008,06,26,16,32,14.10
2008,06,26,16,33,14.10
2008,06,26,16,34,14.10
2008,06,26,16,35,14.10
2008,06,26,16,36,14.10
2008,06,26,16,37,14.10
2008,06,26,16,38,14.10
2008,06,26,16,39,14.10
2008,06,26,16,40,14.20
2008,06,26,16,41,14.20
2008,06,26,16,42,14.20
2008,06,26,16,43,14.30
2008,06,26,16,44,14.30
2008,06,26,16,45,14.30
2008,06,26,16,46,14.30
2008,06,26,16,47,14.30
2008,06,26,16,48,14.30
2008,06,26,16,49,14.20
2008,06,26,16,50,14.20
2008,06,26,16,51,14.20
2008,06,26,16,52,14.20
2008,06,26,16,53,14.20
2008,06,26,16,54,14.30
2008,06,26,16,55,14.30
2008,06,26,16,56,14.30
2008,06,26,16,57,14.40
2008,06,26,16,58,14.40
2008,06,26,16,59,14.40
2008,06,26,17,00,14.40
2008,06,26,17,01,14.40
2008,06,26,17,02,14.30
2008,06,26,17,03,14.30
2008,06,26,17,04,14.30
2008,06,26,17,05,14.30
2008,06,26,17,06,14.30
2008,06,26,17,07,14.30
2008,06,26,17,08,14.30
2008,06,26,17,09,14.30
2008,06,26,17,10,14.30
2008,06,26,17,11,14.30
2008,06,26,17,12,14.30
2008,06,26,17,13,14.30
2008,06,26,17,14,14.40
2008,06,26,17,15,14.40
2008,06,26,17,16,14.40
2008,06,26,17,17,14.40
2008,06,26,17,18,14.40
2008,06,26,17,19,14.40